Tracking 19795 objects as of 20-Jul-2019
HD Live streaming from Space Station
objects crossing your sky now

NOAA 16 DEB

Track NOAA 16 DEB now!
10-day predictions


NORAD ID: 41129
Int'l Code: 2000-055BL
Perigee: 710.9 km
Apogee: 842.5 km
Inclination: 98.9 °
Period: 100.2 minutes
Semi major axis: 7147 km
RCS: Unknown
Launch date: September 21, 2000
Source: United States (US)
Launch site: AIR FORCE WESTERN TEST RANGE (AFWTR)

Note: This is SATELLITE DEBRIS
aabbcc
Your satellite tracking list
Your tracking list is empty




NASA's NSSDC Master Catalog

Two Line Element Set (TLE):
1 41129U 00055BL  19200.79119388 +.00001661 +00000-0 +55281-3 0  9993
2 41129 098.8795 321.9962 0092072 154.4191 206.1593 14.36664889189641
Source of the keplerian elements: AFSPC